Weather Roundup
Issued by NWS Corpus Christi, TX

Home | Current Version | Previous Version | Text Only | Print | Product List | Glossary On
Versions: 1 2 3 4 5 6 7 8 9 10 11 12 13 14 15 16 17 18 19 20 21 22 23 24 25 26 27 28 29 30 31 32 33 34 35 36 37 38 39 40 41 42 43 44 45 46 47 48 49 50
000
ASUS44 KCRP 211510
HRRCRP

SOUTH TEXAS REGIONAL WEATHER ROUNDUP
NATIONAL WEATHER SERVICE CORPUS CHRISTI TX
1000 AM CDT THU AUG 21 2014


TXZ229>244-211600-
...CORPUS CHRISTI AREA OBSERVATIONS...

CITY           SKY/WX    TMP DP  RH WIND       PRES   REMARKS
CORPUS CHRISTI MOSUNNY   87  76  69 S22G28    30.05S HX  97
NAS CORPUS CHR MOSUNNY   87  78  74 S21       30.05R HX 100
ROCKPORT       PTSUNNY   88  77  69 S13G22    30.06R HX 100
KINGSVILLE NAS MOSUNNY   89  77  67 S25G33    30.04R HX 101
ALICE          PTSUNNY   87  75  67 S17G30    30.03R HX  96
FALFURRIAS     MOSUNNY   92  80  67 S17G23    30.03S HX 111
$$

...VICTORIA AREA OBSERVATIONS...

CITY           SKY/WX    TMP DP  RH WIND       PRES   REMARKS
VICTORIA       MOSUNNY   90  76  63 S17       30.07R HX 101
BEEVILLE       PTSUNNY   87  74  65 S20G28    30.05R HX  95
PLEASANTON     SUNNY     85  70  60 SE12G20   30.06R HX  90
SAN ANTONIO    MOSUNNY   85  72  65 S13       30.06S HX  91
$$

...LAREDO AREA OBSERVATIONS...

CITY           SKY/WX    TMP DP  RH WIND       PRES   REMARKS
LAREDO         SUNNY     88  71  56 S18       30.03R HX  93
COTULLA        SUNNY     85  70  60 S9G18     30.02S
DEL RIO        CLOUDY    82  72  71 SE10G18   30.00R
MCALLEN        MOSUNNY   87  75  67 S16G25    30.03S HX  96
HEBBRONVILLE   SUNNY     85  70  59 SE16G31   30.03R HX  90
$$

...OTHER TEXAS OBSERVATIONS...

CITY           SKY/WX    TMP DP  RH WIND       PRES   REMARKS
BROWNSVILLE    MOSUNNY   87  76  69 S17       30.04R HX  97
HOUSTON        NOT AVBL
COL. STATION   MOSUNNY   85  75  72 S15       30.07F HX  93
AUSTIN         MOSUNNY   87  71  58 S14G25    30.07R HX  93
WACO           PTSUNNY   86  73  65 S17       30.04S HX  93
FORT WORTH     PTSUNNY   86  74  67 S21G29    30.02F HX  94
WICHITA FALLS  SUNNY     87  69  54 S21G28    29.98S HX  91
LUBBOCK        MOSUNNY   78  66  66 S22       30.04R
EL PASO        MOSUNNY   77  52  41 S6        30.08R
$$

...MARINE OBSERVATIONS...

STATION/POSITION TIME  SKY/WX   TEMP    WIND        PRES    VSBY  WAVE   SWELL
                                AIR SEA DIR/SP/G                  HT/PER HT/PER
                 (UTC)          (F)     (DEG/KT/KT) (MB)    (MI)  (FT/S) (FT/S)
PORT ARANSAS     1500            82 84  150/ 12/ 13 1018.6R
BUOY 90 E PORT A 1500            85 85  170/ 12/ 14 1018.9R         4/ 7   2/ 7
BUOY 45 SE BAFFI 1500            84 86  170/ 16/ 19 1017.3R         4/ 6   2/11
BUOY 200 E PT IS 1500            85 86  140/ 12/ 14 1019.0R         3/ 6   2/ 6
BUOY 15 E GALVES NOT AVBL
$$


USA.gov is the U.S. government's official web portal to all federal, state and local government web resources and services.